Regional Weather Roundup
Issued by NWS

Home | Current Version | Previous Version | Graphics & Text | Print | Product List | Glossary On
Versions: 1 2 3 4 5 6 7 8 9 10 11 12 13 14 15 16 17 18 19 20 21 22 23 24 25 26 27 28 29 30 31 32 33 34 35 36 37 38 39 40 41 42 43 44 45 46 47 48 49 50
134
ASUS44 KJAN 281903
RWRMS

MISSISSIPPI HOURLY WEATHER ROUNDUP
NATIONAL WEATHER SERVICE JACKSON MS
200 PM CDT MON JUL 28 2014

NOTE: "FAIR: INDICATES FEW OR NO CLOUDS BELOW 12,000 FEET WITH NO
SIGNIFICANT WEATHER AND/OR OBSTRUCTIONS TO VISIBILITY.

MSZ001>002-007>008-010>013-018>021-025>028-034>036-282000-
NORTHWEST MISSISSIPPI

CITY           SKY/WX    TMP DP  RH WIND       PRES   REMARKS
CLARKSDALE     FAIR      84  66  54 NW14      30.06F
CLEVELAND      FAIR      84  70  63 N12       30.05F
GREENWOOD      SUNNY     87  66  49 N8        30.04S
GREENVILLE     SUNNY     89  65  44 N12       30.05F HX  91
GRENADA        FAIR      86  63  45 NW12      30.04F
OLIVE BRANCH   MOSUNNY   82  63  51 N7        30.06F
OXFORD         FAIR      82  63  51 NW10      30.06F
TUNICA         CLEAR     82  63  51 NW13      30.07F
$$

MSZ003>006-009-014>017-022>024-029>033-037>039-282000-
NORTHEAST MISSISSIPPI

CITY           SKY/WX    TMP DP  RH WIND       PRES   REMARKS
BELMONT        FAIR      82  65  56 NW12      30.03S
COLUMBUS AFB   MOSUNNY   87  65  46 NW10G21   30.00F
CORINTH        FAIR      81  63  54 N10       30.03F
GOLDN TRIANGLE MOSUNNY   90  66  45 NW8       30.01F HX  92
STARKVILLE     FAIR      86  64  48 NW8       30.01F
TUPELO         SUNNY     85  62  46 NE15      30.02F
$$

MSZ040-058-282000-
CENTRAL MISSISSIPPI

CITY           SKY/WX    TMP DP  RH WIND       PRES   REMARKS
JACKSON INTL   MOSUNNY   92  71  50 NW9       30.03F HX  98
JACKSON HAWKNS MOSUNNY   89  69  51 W8        30.04F HX  93
MERIDIAN KEY   PTSUNNY   91  74  57 W9        29.99F HX 100
MERIDIAN NAS   MOSUNNY   93  70  46 NW12      29.98F HX  99
RAYMOND        FAIR      90  84  84 NW9       30.04F HX 115
VICKSBURG      SUNNY     92  68  45 N6        30.04F HX  96
$$

MSZ059>079-282000-
SOUTH MISSISSIPPI

CITY           SKY/WX    TMP DP  RH WIND       PRES   REMARKS
BROOKHAVEN     FAIR      88  75  66 W9        30.07F HX  97
COLUMBIA       FAIR      91  79  66 W10       30.02F HX 107
HATTIESBURG    MOSUNNY   92  75  57 W13       30.02F HX 103
MCCOMB         PTSUNNY   89  75  63 W10       30.05F HX  99
NATCHEZ        CLOUDY    86  77  74 W3        30.06F HX  97
PINE BELT      MOSUNNY   91  73  55 W7        30.03F HX 100
$$

MSZ080>082-282000-
COASTAL MISSISSIPPI

CITY           SKY/WX    TMP DP  RH WIND       PRES   REMARKS
BAY ST LOUIS   MOSUNNY  N/A N/A N/A NW7       30.02F
BILOXI         MOSUNNY   91  81  71 SW13      30.01F HX 111
PASCAGOULA     MOSUNNY   93  77  59 VRB7      30.00F HX 107
GULFPORT       MOSUNNY   97  73  45 W9        30.00F HX 107
$$



USA.gov is the U.S. government's official web portal to all federal, state and local government web resources and services.